Location: ??????????
(54.8537°N, 38.8755°E)
Time: 00:41:38
(UTC+00:00)

Transit 4A - Pass Details

Date: 17 September 2024
Orbit: 865 x 977 km, 66.8° (Epoch: 09 October)

Event Time Altitude Azimuth Distance (km) Brightness Sun altitude
Exits shadow 01:41:32 16° 248° (WSW) 2,154 9.1 -12.0°
Maximum altitude 01:46:13 55° 322° (NW) 1,081 8.2 -11.3°
Drops below altitude 10° 01:52:13 10° 41° (NE) 2,635 11.3 -10.5°
Sets 01:54:52 0° 45° (NE) 3,599 12.3 -10.2°
